Terminal Aerodrome Forecast
Issued by NWS Memphis, TN

Home | Current Version | Previous Version | Text Only | Print | Product List | Glossary On
Versions: 1 2 3 4 5 6 7 8 9 10 11 12 13 14 15
000
FTUS44 KMEG 202300
TAFJBR
TAF
KJBR 202327Z 2100/2124 21006KT P6SM FEW060
     FM210100 00000KT P6SM SKC
     FM211500 03005KT P6SM SKC=

USA.gov is the U.S. government's official web portal to all federal, state and local government web resources and services.